GFSNE_850_spd_234.txt.gz
Wind_Speed
10 10 11 12 13 13 12 11 9 11 14 13 13 10 19 25 28 31 31 33 33 34 35 37 38 40 43 46 47 47 48 48 47 48 46 50 50 49
11 11 12 12 12 13 14 13 12 9 10 10 15 17 19 24 26 29 30 31 31 33 34 35 37 39 41 44 48 48 46 47 48 49 50 48 57 51
11 11 11 12 13 13 14 14 12 12 12 15 14 16 20 22 24 26 26 28 26 30 35 36 38 38 40 42 44 46 47 43 46 47 51 48 49 51
10 10 11 12 12 12 12 12 11 12 14 16 18 15 20 22 24 28 26 24 27 30 32 35 34 33 34 35 39 41 42 43 42 43 44 45 44 40
9 9 10 10 10 10 10 10 11 12 13 18 20 19 20 23 27 26 25 27 24 28 29 32 31 30 30 33 36 40 39 34 35 37 39 35 45 37
9 9 8 8 8 8 10 11 12 13 15 16 16 15 20 23 22 25 31 29 29 27 26 29 32 32 29 28 27 32 33 28 29 30 31 32 34 36
7 6 7 8 8 8 9 10 11 13 14 14 13 19 21 25 25 27 27 28 23 25 27 29 30 32 31 32 24 19 22 26 24 21 34 32 29 22
6 7 8 8 7 8 8 8 10 10 12 14 16 19 20 21 22 23 24 25 21 22 21 21 23 25 24 22 22 15 10 15 19 31 25 29 25 29
10 9 8 7 6 6 7 8 9 9 11 14 17 18 20 20 21 20 17 18 19 22 16 15 17 23 26 26 19 18 22 18 23 19 18 17 17 19
11 9 7 5 5 5 5 5 7 9 12 14 16 16 17 18 18 18 16 16 16 17 13 10 13 17 21 25 28 27 24 21 18 18 21 28 30 25
10 8 7 6 4 2 4 4 6 8 10 11 13 14 15 15 16 16 12 11 12 12 12 8 8 12 16 20 21 21 23 26 26 24 24 22 20 19
9 9 9 5 3 3 2 3 4 6 7 9 11 12 13 13 14 14 13 9 10 7 13 6 7 11 7 13 16 18 18 18 16 14 13 11 8 6
7 8 7 6 4 3 3 3 4 5 5 7 6 8 10 12 13 13 13 10 8 6 9 4 7 9 6 6 12 14 15 16 16 16 15 13 11 9
4 6 7 6 6 5 4 4 3 4 3 4 5 8 8 11 12 12 11 11 11 11 10 5 5 4 3 6 8 11 15 16 16 18 17 14 12 10
5 3 6 7 7 6 5 3 3 3 3 2 3 5 7 7 11 12 8 10 10 11 12 10 6 5 5 9 10 10 10 11 11 12 13 14 14 13
7 5 7 8 8 7 6 4 4 3 5 5 4 5 6 6 6 5 5 4 7 11 12 10 11 10 12 11 10 10 9 4 6 6 8 10 11 11
9 8 9 10 10 9 8 7 6 5 6 7 8 8 7 5 4 2 2 4 5 7 11 13 11 9 10 12 10 8 8 7 5 5 7 8 7 6
13 11 10 11 11 11 10 9 8 6 6 7 6 7 7 6 4 2 1 2 3 5 6 7 8 8 7 7 8 7 6 4 4 4 4 5 5 6
17 14 13 12 11 13 12 11 10 8 7 8 6 7 7 6 5 4 2 1 2 2 2 2 2 2 2 2 2 1 4 2 2 3 3 3 3 6
18 17 15 13 11 15 14 13 11 9 10 10 9 9 9 7 6 4 3 2 1 1 1 1 0 2 2 1 2 1 0 1 2 3 4 6 6 7
19 18 17 12 13 14 15 15 12 11 12 11 9 10 10 8 6 6 6 4 2 0 1 2 1 0 1 2 3 1 1 2 5 6 8 8 6 5
19 17 15 15 16 15 17 14 12 13 13 12 10 10 10 9 7 6 5 4 3 2 2 2 1 2 2 2 1 2 3 8 10 10 11 11 10 5
18 16 14 16 16 16 15 14 12 12 12 12 11 11 10 8 7 7 7 5 4 4 3 1 0 0 0 1 1 3 7 8 11 11 11 14 13 14

GFSNE_850_spd_237.txt.gz
Wind_Speed
9 10 11 10 10 10 9 8 5 7 10 10 10 10 15 21 23 28 29 29 29 30 31 33 35 37 40 42 44 45 48 49 48 49 51 51 52 52
12 10 9 9 9 7 6 5 3 6 8 9 12 15 15 18 20 25 26 27 26 27 32 33 36 38 39 41 44 45 47 48 50 50 47 50 53 54
10 9 9 6 6 5 5 6 6 7 8 10 11 12 15 17 21 24 26 24 23 25 30 31 34 36 39 42 45 46 47 47 47 45 44 42 46 52
9 8 8 7 6 5 5 5 5 5 6 11 11 12 13 18 22 24 21 21 24 24 28 31 34 36 39 41 42 44 46 46 46 44 42 39 39 45
10 9 7 5 4 4 4 2 3 4 6 10 12 11 12 20 22 19 23 26 24 26 26 30 32 36 39 42 43 41 40 41 41 39 38 35 34 35
10 7 6 5 6 5 4 5 7 8 10 9 10 12 17 19 19 22 27 25 25 23 27 26 29 33 36 41 40 36 32 34 32 27 26 31 33 30
8 8 7 6 5 5 6 8 8 8 9 11 10 14 18 21 22 24 25 26 22 19 27 23 29 32 36 39 40 41 36 22 21 23 26 29 24 19
10 9 8 6 6 6 7 7 7 8 9 10 11 13 15 18 19 21 22 23 21 22 25 19 24 27 31 35 34 22 15 7 9 14 17 15 24 31
11 8 7 7 8 8 7 6 7 7 7 8 9 12 15 17 20 20 19 18 18 20 24 16 19 23 26 27 29 30 32 27 27 28 25 21 26 27
10 9 8 9 9 7 6 7 7 6 8 8 10 11 13 15 17 19 19 16 16 16 20 16 19 20 23 22 24 25 26 28 28 26 23 28 34 36
12 11 12 11 8 6 7 6 6 5 4 6 7 7 10 13 16 17 17 16 15 14 14 18 16 18 14 20 21 23 22 22 24 25 25 24 21 19
15 15 14 11 7 8 8 4 1 6 5 6 9 12 13 13 14 16 16 15 13 9 17 14 13 16 7 15 18 20 21 23 22 21 19 18 18 16
17 16 13 10 10 10 7 6 6 5 5 2 2 4 6 12 13 12 13 13 14 11 15 11 11 11 10 7 12 17 18 21 22 22 22 20 17 15
16 13 11 11 11 9 8 5 5 5 4 3 3 3 6 9 11 12 10 12 16 15 15 8 7 7 6 7 6 9 13 16 19 20 20 19 19 17
12 10 10 11 11 9 8 7 6 6 5 3 4 4 5 8 11 14 12 12 16 15 11 10 9 8 6 5 4 6 9 13 16 18 18 18 18 17
12 10 10 11 11 10 10 9 8 8 8 9 7 3 4 5 4 3 7 8 11 13 11 8 7 7 6 5 4 5 5 6 11 14 15 15 15 14
13 12 12 12 12 12 13 12 10 9 9 11 9 6 5 2 4 4 2 4 5 9 9 10 11 11 8 6 8 8 7 7 8 10 9 11 10 9
16 16 13 12 12 14 14 12 11 10 11 10 8 6 7 6 5 4 2 1 2 4 7 9 11 14 14 11 6 6 6 6 7 7 7 6 7 9
21 19 16 12 12 13 13 13 12 12 11 10 8 6 7 7 5 5 4 1 0 2 4 4 5 5 6 6 7 4 3 4 6 7 7 6 4 7
24 22 18 15 13 14 13 14 14 14 12 11 9 8 8 7 6 4 4 3 1 2 4 5 3 2 3 2 7 5 3 5 6 7 8 8 9 9
26 24 19 17 15 14 12 14 15 14 12 12 11 9 9 7 6 7 8 6 3 1 4 6 4 5 4 7 10 8 5 5 7 8 9 9 8 7
26 23 20 18 15 14 14 17 15 14 14 13 12 10 9 8 8 7 6 3 3 5 7 5 4 4 3 2 5 6 7 10 9 8 9 9 9 6
25 23 22 17 15 16 18 17 15 14 14 12 11 10 9 8 8 7 7 7 7 4 4 3 5 3 3 3 5 5 10 9 9 9 13 18 12 12

GFSNE_850_spd_243.txt.gz
Wind_Speed
24 25 24 21 19 17 15 15 15 12 10 9 11 13 16 20 24 24 23 25 25 27 27 28 30 33 33 35 37 40 42 44 46 49 48 47 48 47
26 27 24 21 18 16 13 12 13 12 12 13 14 17 19 22 19 18 18 20 23 25 25 27 28 30 32 34 36 38 41 41 44 48 51 50 48 43
29 27 23 20 16 13 12 12 12 11 13 15 15 17 16 15 15 16 18 18 20 23 24 25 26 28 30 33 35 38 40 42 46 48 49 47 45 42
30 26 23 19 15 13 12 11 11 11 11 11 10 12 12 12 14 16 17 18 18 19 21 23 23 24 26 29 32 35 40 43 50 53 51 42 34 35
26 23 21 16 15 13 12 13 11 8 7 7 8 9 11 12 13 14 14 14 15 15 18 21 20 23 26 27 29 32 36 37 42 50 59 47 37 29
24 21 18 16 14 14 14 12 9 8 7 5 6 7 10 12 13 14 12 13 12 12 16 20 20 21 22 24 27 30 32 35 38 43 50 43 33 32
26 21 18 15 14 14 12 11 10 8 6 5 4 7 10 10 13 14 14 13 12 12 13 19 22 23 23 26 30 31 31 31 35 39 44 45 36 28
25 22 18 17 17 15 13 10 7 5 5 4 4 7 7 9 11 12 14 18 16 15 19 19 18 23 26 25 30 31 30 30 29 32 36 42 41 43
23 21 21 20 18 15 12 10 7 5 4 4 6 5 6 9 9 10 11 12 11 15 16 19 14 20 23 22 28 30 30 30 29 27 29 31 33 39
23 21 20 20 18 15 14 12 9 6 4 5 5 4 6 6 8 12 12 11 8 11 12 13 13 18 19 18 26 29 29 27 27 27 24 25 26 26
25 23 22 20 17 16 14 12 10 7 6 6 2 3 3 5 9 10 8 7 9 8 13 12 13 16 14 18 23 26 27 27 25 26 26 25 23 22
29 26 21 19 19 17 14 12 10 8 6 3 0 2 4 6 8 8 8 11 12 7 12 13 13 14 7 14 19 23 23 26 24 24 25 27 26 24
30 27 26 24 20 17 14 11 9 9 7 6 4 1 5 5 5 8 9 9 12 13 13 13 14 9 8 12 16 20 21 23 23 25 24 24 25 26
28 25 26 23 21 19 16 13 12 9 8 9 6 3 2 6 5 6 9 9 10 12 11 11 12 12 11 10 14 16 15 18 19 23 24 22 23 25
22 25 25 24 22 19 17 16 14 12 13 12 9 5 4 8 5 2 5 6 8 9 8 9 10 11 11 13 13 13 15 14 17 18 19 20 21 20
28 29 27 24 21 20 20 18 15 13 13 13 11 10 10 9 8 3 5 5 5 6 5 6 8 9 12 14 14 13 13 11 14 16 17 16 17 18
35 32 31 30 27 24 22 19 16 15 14 14 12 11 11 11 10 8 9 8 7 7 6 6 6 7 9 11 13 15 14 13 12 12 13 17 16 16
35 34 32 29 27 25 22 20 17 15 14 13 13 13 14 14 12 10 10 10 9 10 11 11 12 8 10 9 9 12 12 11 11 11 11 12 14 16
34 32 30 30 27 23 21 18 16 15 14 13 13 13 14 12 12 12 12 11 12 12 13 13 11 12 13 12 10 11 10 8 9 10 12 13 13 12
29 31 30 27 24 22 20 18 17 16 16 15 14 14 13 13 12 12 12 11 11 12 12 12 9 9 10 9 7 8 9 10 10 11 11 11 11 11
33 29 26 24 21 19 18 17 15 14 14 15 14 14 14 14 12 12 11 10 10 14 15 14 12 10 8 9 8 8 11 9 11 11 11 9 9 7
35 30 27 23 21 19 17 16 15 15 14 14 14 13 12 12 13 12 9 10 12 15 14 14 14 10 9 9 10 11 9 9 10 10 10 12 13 11
32 29 26 24 22 19 17 17 16 15 14 12 13 13 12 11 13 10 8 10 12 12 13 13 10 6 4 4 5 7 8 8 10 10 12 16 19 17

GFSNE_850_spd_246.txt.gz
Wind_Speed
34 34 29 24 22 21 21 21 21 19 19 16 14 12 10 13 18 20 21 22 23 24 25 25 26 27 27 28 31 33 35 37 39 41 44 48 49 51
37 34 28 25 24 23 22 20 20 21 19 18 16 14 13 15 18 18 18 20 21 22 23 23 24 24 26 28 30 32 33 36 38 40 48 53 60 55
36 30 28 26 26 24 21 20 20 20 19 16 17 14 13 14 15 15 16 17 18 19 20 21 22 23 25 26 27 29 31 34 37 41 47 55 65 65
34 32 31 30 27 23 20 19 19 17 16 17 15 14 13 13 12 12 14 15 16 16 17 19 21 22 22 24 27 29 29 31 34 39 44 53 59 64
32 33 33 31 27 24 21 19 17 15 14 14 14 12 11 9 9 10 12 13 12 13 15 16 18 21 21 23 25 26 29 31 32 35 40 51 49 49
33 33 31 29 25 23 20 17 15 15 14 13 12 11 8 7 7 8 8 8 10 10 13 15 18 21 21 20 23 27 29 30 30 32 35 38 48 45
32 32 29 27 24 20 17 16 15 14 13 12 11 9 7 6 6 7 7 8 9 10 11 14 16 18 20 21 27 29 29 29 29 28 30 33 36 44
38 35 32 28 24 19 18 16 14 13 13 12 10 8 6 5 5 4 6 8 8 11 12 15 15 19 19 22 27 29 30 30 29 26 25 27 29 31
39 37 32 28 24 22 21 18 16 15 13 11 9 7 6 4 3 3 6 8 9 10 12 12 14 17 15 19 24 28 30 30 29 27 25 22 24 24
39 34 30 28 25 22 20 18 17 15 12 10 8 6 5 4 1 2 4 7 9 10 12 10 12 14 12 17 22 25 27 28 29 26 25 23 23 20
37 32 28 26 25 23 21 19 18 17 14 12 9 7 6 2 2 4 7 8 7 7 10 10 10 12 9 14 19 21 24 25 26 26 25 25 24 21
37 34 30 27 25 23 21 20 20 17 15 14 11 10 7 4 4 4 5 5 6 5 8 8 11 13 6 12 16 18 20 22 23 25 25 26 24 24
39 38 34 30 26 24 22 20 17 17 17 14 12 10 7 5 4 3 4 5 7 7 7 10 11 10 9 11 13 16 16 19 19 21 23 24 25 26
40 36 34 30 28 27 24 22 21 19 18 16 13 11 9 6 4 2 3 4 6 6 6 8 9 10 11 11 12 13 12 15 17 18 19 19 19 21
35 34 32 29 31 28 26 25 23 21 19 18 14 12 8 4 3 2 1 3 4 4 4 5 6 8 9 11 12 14 15 12 17 16 16 18 19 18
35 36 31 31 31 29 28 26 23 22 19 17 14 12 11 7 6 6 3 1 1 0 3 5 8 9 10 11 13 14 13 12 14 15 14 15 16 17
39 36 35 33 33 33 30 28 26 25 23 20 19 16 13 11 10 8 7 5 4 4 6 7 8 9 10 11 12 13 15 13 12 13 13 15 14 15
38 41 38 36 37 36 34 32 29 27 24 21 20 18 16 14 12 10 9 7 8 8 10 10 11 12 11 11 12 13 17 13 11 12 12 12 12 12
44 39 35 39 40 37 35 33 31 28 24 23 21 20 18 16 15 12 11 11 11 11 12 12 13 11 12 12 13 14 13 11 11 12 13 12 11 11
44 35 36 39 39 37 34 31 28 27 26 24 23 22 19 18 17 14 12 13 12 14 15 13 10 10 11 10 9 12 13 14 12 11 9 11 10 8
45 37 38 39 37 36 32 30 29 28 26 25 25 21 19 19 18 15 14 13 12 14 14 12 11 11 12 10 11 12 12 12 11 11 10 9 10 7
42 38 38 36 36 34 31 30 28 28 27 26 24 22 20 18 18 16 14 12 11 12 13 12 11 11 10 9 11 12 12 12 11 10 9 11 15 12
44 37 34 35 35 30 29 29 29 28 26 24 23 22 19 19 20 17 15 14 12 11 11 10 10 9 8 7 7 9 10 10 13 13 9 13 14 12

GFSNE_850_spd_252.txt.gz
Wind_Speed
43 40 37 34 34 33 27 28 29 28 29 27 24 24 20 16 13 12 11 12 13 13 13 14 16 18 19 19 20 21 23 24 25 26 26 29 30 34
45 44 41 38 34 33 27 26 31 31 28 30 29 24 21 17 13 11 11 12 11 12 13 14 16 18 19 20 21 23 23 25 25 24 25 25 28 32
46 46 43 40 37 35 29 26 30 27 31 24 26 24 21 18 14 12 11 9 9 10 12 13 16 17 18 19 22 23 25 24 24 24 23 23 26 29
45 45 45 42 40 36 33 29 29 28 32 29 24 25 23 19 16 13 9 7 7 8 10 12 13 14 16 19 22 23 24 24 24 23 22 22 23 25
43 43 46 44 42 37 30 25 26 29 31 30 26 25 24 21 17 12 8 6 6 7 8 10 12 14 16 18 19 20 24 26 25 24 23 23 23 23
41 41 43 45 45 36 25 18 30 31 29 26 24 23 23 20 17 13 10 8 8 5 6 8 9 11 13 15 18 21 24 25 25 26 25 25 25 24
41 42 39 44 41 28 25 28 32 29 28 25 23 24 23 21 18 13 11 9 7 6 5 6 6 8 10 14 17 20 22 24 25 25 25 26 26 27
41 40 39 35 30 27 28 25 26 30 29 25 23 22 20 18 17 14 12 11 9 7 5 3 4 7 9 12 17 18 20 22 23 25 26 26 27 27
33 31 29 35 21 19 27 24 26 27 20 17 19 19 19 17 15 15 13 11 9 7 5 2 3 4 6 10 13 15 17 19 21 22 24 26 27 27
28 28 32 32 37 37 40 32 33 29 25 21 18 16 17 17 17 14 13 12 10 7 5 2 0 2 4 7 10 12 14 16 18 19 20 22 24 25
31 31 44 38 35 40 35 38 38 33 27 22 22 20 19 19 17 15 15 13 11 8 6 4 2 3 3 5 6 8 11 13 15 17 17 18 20 21
37 45 48 40 38 41 40 40 37 32 29 27 25 21 22 20 18 17 14 12 10 9 7 6 4 4 2 2 4 7 9 12 14 15 16 17 18 19
40 44 48 40 44 41 35 36 33 30 28 22 22 23 24 21 19 18 16 13 11 8 8 8 6 4 3 1 2 6 8 8 12 13 15 18 19 20
35 41 46 44 41 34 37 34 30 25 21 25 24 25 24 22 20 18 15 13 11 10 11 10 7 4 1 1 2 6 8 8 9 10 12 14 16 19
31 40 47 44 35 33 33 31 30 26 24 28 25 25 24 21 21 19 16 14 13 14 13 10 6 3 3 3 3 4 7 8 11 10 10 12 14 16
30 35 38 33 32 30 32 30 28 27 27 24 21 26 26 25 23 19 17 16 15 15 13 10 7 6 5 4 4 6 8 8 9 9 10 12 14 15
31 34 40 41 42 42 42 37 33 30 27 23 27 28 28 26 24 21 19 18 16 15 14 11 8 6 5 6 6 7 8 9 10 9 10 10 11 12
36 44 47 47 48 46 44 40 36 33 31 28 30 29 29 28 26 24 22 19 18 16 14 11 9 7 6 7 7 8 9 8 10 10 10 10 11 11
40 45 48 48 49 48 47 44 39 36 31 32 32 33 30 27 25 25 22 21 19 16 14 12 10 10 8 8 8 8 9 10 9 9 10 9 9 10
40 43 46 48 49 49 46 44 36 36 34 35 36 34 31 29 28 27 23 21 18 17 17 14 14 12 11 9 9 9 10 10 10 8 8 9 9 9
43 44 46 48 49 50 49 42 38 38 37 36 38 35 33 32 31 27 23 20 18 18 18 16 13 15 14 12 11 11 11 10 10 8 9 9 8 6
45 47 48 49 51 50 47 43 40 38 37 37 37 35 35 33 32 28 25 23 21 18 16 16 17 17 16 14 12 11 9 9 9 8 9 11 10 8
48 50 50 49 48 48 47 43 38 37 35 37 37 36 35 35 31 28 24 22 21 21 20 19 19 18 16 14 12 11 10 9 10 9 9 9 10 10